Regional Weather Roundup
Issued by NWS

Home | Current Version | Previous Version | Graphics & Text | Print | Product List | Glossary Off
Versions: 1 2 3 4 5 6 7 8 9 10 11 12 13 14 15 16 17 18 19 20 21 22 23 24 25 26 27 28 29 30 31 32 33 34 35 36 37 38 39 40 41 42 43 44 45 46 47 48 49 50

000
ASUS43 KTOP 090959
RWRKS

WEATHER ROUNDUP FOR KANSAS
NATIONAL WEATHER SERVICE GOODLAND KS
400 AM CST FRI DEC 09 2016

NOTE:  "FAIR" INDICATES FEW OR NO CLOUDS BELOW 12,000 FEET WITH NO
SIGNIFICANT WEATHER AND/OR OBSTRUCTIONS TO VISIBILITY.

KSZ001>006-013>018-027>032-041>047-091100-
NORTHWEST KANSAS

CITY           SKY/WX    TMP DP  RH WIND       PRES   REMARKS
GOODLAND       CLOUDY     4  -1  80 S10       30.29F WCI -11
HAYS           CLOUDY    14   8  77 SE6       30.54F
HILL CITY      CLOUDY    13   6  74 CALM      30.50F
RUSSELL        CLOUDY    14   9  80 SE7       30.55F
$$

KSZ061>065-074>080-084>089-091100-
SOUTHWEST KANSAS

CITY           SKY/WX    TMP DP  RH WIND       PRES   REMARKS
DODGE CITY     CLOUDY    20   6  55 SE14      30.48F WCI   7
ELKHART          N/A     23   5  46 S15         N/A  WCI  10
GARDEN CITY    CLOUDY    20   4  50 SE16      30.41F WCI   6
GREAT BEND     CLOUDY    15  10  80 SE5       30.56F
LIBERAL        CLOUDY    25   5  42 SE9       30.41F
$$

KSZ066>073-081>083-090>101-091100-
SOUTHEAST KANSAS

CITY           SKY/WX    TMP DP  RH WIND       PRES   REMARKS
CHANUTE        CLEAR     14   9  80 CALM      30.66F
COFFEYVILLE    CLEAR     14  11  87 CALM      30.69S
HUTCHINSON     CLOUDY    11   7  84 CALM      30.62F
MEDICINE LODGE   N/A     17  10  74 SE3       30.61F
NEWTON         CLOUDY    14   7  73 N3        30.62F
PARSONS        CLEAR     11   8  88 CALM      30.68F
WICHITA INTL   CLOUDY    13   8  81 CALM      30.64S
WICHITA JABRA  CLOUDY    15   8  73 N5        30.63F
WINFIELD       CLOUDY    13   9  84 CALM      30.67R
$$

KSZ007>012-019>026-033>040-048>060-102>105-091100-
NORTHEAST KANSAS

CITY           SKY/WX    TMP DP  RH WIND       PRES   REMARKS
CONCORDIA      CLOUDY     9   5  84 CALM      30.60F
EMPORIA        CLEAR     11   8  88 CALM      30.64S
LAWRENCE       CLEAR      8   5  87 NW7       30.68S
MANHATTAN      CLEAR      9   5  84 CALM      30.65F
OLATHE IND     CLEAR     11   8  88 NW3       30.66R
OLATHE EXE     CLEAR     13   7  77 NW6       30.65R
SALINA         CLOUDY     9   5  84 SW3       30.63F
TOPEKA BILLARD CLEAR     10   6  84 CALM      30.67F
TOPEKA FORBES  CLEAR     10   6  84 CALM      30.65S
$$




USA.gov is the U.S. government's official web portal to all federal, state and local government web resources and services.